Location: Sortland
(68.7020°N, 15.4240°E)
Time: 15:22:15
(UTC+01:00)

Envisat - Pass Details

Date: 29 October 2019
Orbit: 764 x 766 km, 98.1° (Epoch: 12 November)

Event Time Altitude Azimuth Distance (km) Brightness Sun altitude
Rises 06:31:46 0° 18° (NNE) 3,249 6.3 -8.0°
Reaches altitude 10° 06:34:15 10° 26° (NNE) 2,319 5.6 -7.8°
Maximum altitude 06:39:01 39° 95° (E) 1,150 4.7 -7.4°
Drops below altitude 10° 06:43:47 10° 164° (SSE) 2,307 6.0 -7.0°
Sets 06:46:14 0° 172° (S) 3,229 6.6 -6.8°
